Hourly Data Report for October 19, 2014

All times are specified in Local Standard Time (LST). Add 1 hour to adjust for Daylight Saving Time where and when it is observed.

PANGNIRTUNG
NUNAVUT

66°08'36.300" N
65°42'40.500" W
22.60 m
2403049
71826
WXP

Download Data

Hourly Data (October 2014)
Hourly Data Report for October 19, 2014
Temp Definition
°C
Dew Point Temp Definition
°C
Rel Hum Definition
%
Wind Dir Definition
10's deg

Wind Spd Definition
km/h
Visibility Definition
km
Stn Press Definition
kPa
Hmdx Definition


Wind Chill Definition


Weather Definition


TIME
00:00 -7.8 -10.4 82 21 5   101.22   -10 LegendNANA
01:00 -8.1 -10.5 83 20 5   101.23   -11 LegendNANA
02:00 -7.6 -9.9 84 20 1   101.25   -8 LegendNANA
03:00 -7.5 -9.9 83 19 5   101.26   -10 LegendNANA
04:00 -7.1 -9.1 86 22 3   101.28   -9 LegendNANA
05:00 -8.9 -11.3 83 13 8   101.32   -13 LegendNANA
06:00 -8.6 -10.8 84 22 4   101.35   -11 LegendNANA
07:00 -8.7 -10.6 86 19 2   101.35   -10 LegendNANA
08:00 -9.1 -11.0 86 23 2   101.35   -10 LegendNANA
09:00 -9.0 -11.0 85 22 4   101.36   -11 LegendNANA
10:00 -8.6 -10.8 84 22 3   101.38   -10 LegendNANA
11:00 -8.5 -11.4 79 19 4   101.36   -11 LegendNANA
12:00 -8.2 -11.0 80 20 5   101.37   -11 LegendNANA
13:00 -8.2 -11.3 79 19 6   101.36   -11 LegendNANA
14:00 -7.8 -10.3 82 18 6   101.35   -11 LegendNANA
15:00 -7.6 -9.9 84 19 6   101.37   -11 LegendNANA
16:00 -7.8 -10.3 82 19 5   101.38   -10 LegendNANA
17:00 -7.0 -9.4 83 19 6   101.39   -10 LegendNANA
18:00 -7.3 -9.4 85 13 3   101.38   -9 LegendNANA
19:00 -8.0 -10.1 85 16 7   101.38   -12 LegendNANA
20:00 -9.1 -11.6 82 13 7   101.39   -13 LegendNANA
21:00 -9.5 -12.0 83 29 1   101.37   -10 LegendNANA
22:00 -9.4 -12.1 81 26 3   101.36   -11 LegendNANA
23:00 -9.2 -12.2 79 19 3   101.33   -11 LegendNANA

Notes on Data Quality.

Legend

  • E = Estimated
  • M = Missing
  • NA = Not Available
  • ‡ = Partner data that is not subject to review by the National Climate Archives
Date modified: